Weather reports worldwide

Advertisment
Rostock-Warnemünde, Germany (10170): temperature & dewpoint: 08.11.2018 13:00:00 - 14.11.2018 13:00:00 (CET)Rostock-Warnemünde, Germany (10170): temperature 5cm & temperature -5cm: 08.11.2018 13:00:00 - 14.11.2018 13:00:00 (CET)Rostock-Warnemünde, Germany (10170): temperature -20cm & temperature -100cm: 08.11.2018 13:00:00 - 14.11.2018 13:00:00 (CET)Rostock-Warnemünde, Germany (10170): wind speed & gusts: 08.11.2018 13:00:00 - 14.11.2018 13:00:00 (CET)Rostock-Warnemünde, Germany (10170): wind direction: 08.11.2018 13:00:00 - 14.11.2018 13:00:00 (CET)Rostock-Warnemünde, Germany (10170): reduced air pressure: 08.11.2018 13:00:00 - 14.11.2018 13:00:00 (CET)Rostock-Warnemünde, Germany (10170): visibility: 08.11.2018 13:00:00 - 14.11.2018 13:00:00 (CET)Rostock-Warnemünde, Germany (10170): sunshine duration: 08.11.2018 13:00:00 - 14.11.2018 13:00:00 (CET)Rostock-Warnemünde, Germany (10170): precipitation: 08.11.2018 13:00:00 - 14.11.2018 13:00:00 (CET)
Date & Time tt [°C] td [°C] tt 5cm [°C] tt -5cm [°C] tt -20cm [°C] tt -100cm [°C] ff [km/h] ff [kn] fx [km/h] fx [kn] dd ppp [hPa] vv [km] sd [min] rr [mm]
14.11.2018 13:00:00 9,6 7,0 10,0 10,6 9,6 10,9 10 5 24 13 SW 1028,3 11 0 0,0
14.11.2018 12:00:00 9,4 7,3 9,9 10,4 9,4 10,9 10 6 24 13 W 1028,5 9 29 0,0
14.11.2018 11:00:00 9,1 7,2 9,6 9,8 9,3 10,9 14 8 32 18 WSW 1028,2 9 41 0,0
14.11.2018 10:00:00 8,8 7,0 9,2 8,7 9,3 10,9 11 6 24 13 SW 1027,6 11 24 0,0
14.11.2018 09:00:00 9,2 7,3 8,9 8,6 9,3 10,9 9 5 21 11 SW 1027,2 19 0 0,0
14.11.2018 08:00:00 9,3 7,2 8,9 8,4 9,3 10,9 12 7 25 14 WSW 1026,7 25 0 0,0
14.11.2018 07:00:00 9,6 7,5 9,1 8,5 9,3 10,9 12 6 34 19 SW 1026,1 25 0 0,0
14.11.2018 06:00:00 9,9 7,6 9,3 8,6 9,3 10,9 18 10 30 16 WSW 1025,7 29 0 0,0
14.11.2018 05:00:00 9,8 7,5 9,1 8,6 9,3 10,9 16 9 39 21 WSW 1025,2 32 0 0,0
14.11.2018 04:00:00 9,8 7,9 8,9 8,6 9,3 10,9 19 10 40 22 WSW 1025,1 28 0 0,2
14.11.2018 03:00:00 10,0 7,4 9,5 8,3 9,4 10,9 17 9 40 22 WSW 1024,6 34 0 0,0
14.11.2018 02:00:00 9,9 7,1 9,0 8,0 9,4 10,9 17 9 37 20 WSW 1024,2 35 0 0,0
14.11.2018 01:00:00 10,3 7,3 9,5 8,3 9,4 10,9 18 10 37 20 WSW 1023,5 35 0 0,0
14.11.2018 00:00:00 10,3 7,3 9,8 8,6 9,4 10,9 19 10 36 20 WSW 1023,3 37 0 0,0
13.11.2018 23:00:00 10,1 7,2 9,4 8,3 9,5 10,9 19 10 36 19 WSW 1022,6 31 0 0,0
13.11.2018 22:00:00 9,8 7,5 8,9 8,3 9,5 10,9 19 10 33 18 SW 1022,2 16 0 0,0
13.11.2018 21:00:00 9,8 7,2 9,0 7,9 9,7 10,9 16 8 32 18 SW 1021,8 21 0 0,0
13.11.2018 20:00:00 9,7 7,2 9,1 8,2 9,8 10,9 16 9 33 18 SW 1021,4 20 0 0,0
13.11.2018 19:00:00 9,6 7,1 8,7 8,1 9,9 10,9 15 8 30 16 SW 1021,3 25 0 0,0
13.11.2018 18:00:00 9,7 7,4 8,3 8,4 10,1 10,9 14 8 31 17 SW 1020,8 24 0 0,0
13.11.2018 17:00:00 10,2 7,9 9,1 9,1 10,2 10,9 14 8 31 17 SW 1020,3 17 0 1,2
13.11.2018 16:00:00 10,6 8,0 9,5 9,9 10,2 10,9 16 9 32 17 WSW 1019,7 7 0 0,6
13.11.2018 15:00:00 12,1 7,9 11,4 10,6 10,1 10,9 18 10 39 21 SW 1019,1 15 3 0,0
13.11.2018 14:00:00 11,8 9,0 11,1 11,1 10,0 10,9 19 10 32 18 SSW 1018,9 13 4 0,1
13.11.2018 13:00:00 11,4 8,8 11,3 11,0 9,9 10,9 14 8 27 15 S 1018,7 14 3 0,0
13.11.2018 12:00:00 10,8 8,5 10,8 10,5 9,8 10,9 17 9 29 16 S 1019,0 10 0 0,0
13.11.2018 11:00:00 10,4 8,4 10,3 9,8 9,7 10,9 11 6 22 12 S 1019,1 9 0 0,0
13.11.2018 10:00:00 10,0 8,3 9,7 9,2 9,8 10,9 10 5 16 9 S 1018,8 8 0 0,0
13.11.2018 09:00:00 9,8 8,2 9,5 8,9 9,8 10,9 10 5 16 8 S 1019,2 8 0 0,0
13.11.2018 08:00:00 9,7 8,4 9,1 8,6 9,9 10,9 8 4 16 9 S 1018,9 8 0 0,0
13.11.2018 07:00:00 9,8 8,5 9,0 8,7 10,0 10,9 10 5 14 8 SSW 1018,3 9 0 0,0
13.11.2018 06:00:00 10,1 8,6 9,1 8,8 10,1 10,9 6 3 15 8 WSW 1018,0 10 0 0,0
13.11.2018 05:00:00 10,4 8,9 9,5 9,1 10,1 10,9 8 4 18 10 SW 1017,9 10 0 0,0
13.11.2018 04:00:00 10,8 8,9 10,0 9,5 10,2 10,9 9 5 21 12 SW 1017,5 12 0 0,0
13.11.2018 03:00:00 11,0 9,2 10,4 9,6 10,2 10,9 10 6 23 12 SW 1017,7 10 0 0,0
13.11.2018 02:00:00 11,2 9,4 10,6 10,0 10,3 10,9 12 6 23 13 SW 1017,2 11 0 0,0
13.11.2018 01:00:00 11,2 9,5 10,8 10,0 10,3 10,8 11 6 25 14 SW 1016,5 11 0 0,0
13.11.2018 00:00:00 11,2 9,7 10,6 9,8 10,4 10,8 13 7 31 17 WSW 1016,5 18 0 0,0
12.11.2018 23:00:00 11,2 9,6 10,5 10,2 10,4 10,8 13 7 46 25 W 1015,5 19 0 0,0
12.11.2018 22:00:00 12,5 10,9 11,8 11,0 10,3 10,8 17 9 32 17 WSW 1014,7 13 0 0,0
12.11.2018 21:00:00 13,2 10,0 12,5 10,7 10,3 10,8 11 6 21 12 SW 1014,1 16 0 0,0
12.11.2018 20:00:00 13,4 9,5 12,6 10,6 10,2 10,8 11 6 30 16 SSW 1013,2 50 0 0,0
12.11.2018 19:00:00 12,9 9,6 12,2 10,3 10,2 10,8 11 6 29 15 S 1012,5 34 0 0,0
12.11.2018 18:00:00 12,6 10,0 11,4 10,3 10,3 10,8 13 7 29 16 S 1012,3 21 0 0,0
12.11.2018 17:00:00 11,9 10,2 11,2 10,4 10,2 10,8 13 7 29 15 S 1012,7 14 0 0,0
12.11.2018 16:00:00 11,5 10,1 10,8 10,6 10,2 10,8 13 7 29 16 SSE 1013,0 12 1 0,0
12.11.2018 15:00:00 11,4 10,2 10,8 11,1 10,1 10,8 17 9 24 13 SE 1013,3 11 0 0,0
12.11.2018 14:00:00 11,0 10,4 10,7 10,7 10,1 10,8 8 4 21 11 E 1014,1 11 0 0,5
12.11.2018 13:00:00 11,0 10,2 10,5 10,6 10,0 10,8 14 8 19 11 SE 1015,3 9 0 1,3
12.11.2018 12:00:00 11,0 10,1 10,5 10,7 9,9 10,8 9 5 18 10 SE 1015,3 8 0 2,0
12.11.2018 11:00:00 11,3 9,6 10,5 10,5 9,8 10,8 9 5 19 10 SSE 1015,5 11 0 0,1
12.11.2018 10:00:00 11,1 9,2 10,5 10,2 9,7 10,8 11 6 23 12 S 1015,8 24 0 0,0
12.11.2018 09:00:00 10,9 9,4 10,1 9,4 9,7 10,8 6 3 13 7 S 1015,8 35 0 0,0
12.11.2018 08:00:00 10,7 9,4 9,5 9,0 9,8 10,8 8 4 13 7 S 1015,7 25 0 0,0
12.11.2018 07:00:00 10,9 9,4 9,7 9,0 9,8 10,8 6 4 19 10 S 1015,1 29 0 0,0
12.11.2018 06:00:00 11,0 9,4 9,8 9,1 9,9 10,8 11 6 18 10 S 1014,8 31 0 0,0
12.11.2018 05:00:00 11,4 9,6 10,3 9,6 9,9 10,8 11 6 22 12 S 1014,2 37 0 0,0
12.11.2018 04:00:00 11,3 9,6 10,3 9,6 9,9 10,8 11 6 19 10 SSW 1014,0 33 0 0,1
12.11.2018 03:00:00 11,2 9,9 10,3 9,8 9,9 10,8 8 5 21 11 S 1013,6 13 0 0,5
12.11.2018 02:00:00 11,2 9,7 10,2 9,7 9,9 10,8 6 4 14 8 S 1013,0 31 0 0,0
12.11.2018 01:00:00 11,5 9,6 10,5 9,9 9,9 10,8 6 3 19 11 S 1012,5 25 0 0,1
12.11.2018 00:00:00 11,3 9,3 10,3 9,7 9,9 10,8 11 6 22 12 S 1012,2 13 0 0,0
11.11.2018 23:00:00 11,2 9,1 9,9 9,5 9,9 10,7 10 5 24 13 S 1011,7 26 0 0,2
11.11.2018 22:00:00 11,6 8,5 11,0 9,5 9,9 10,7 14 7 26 14 S 1011,7 34 0 0,0
11.11.2018 21:00:00 11,3 8,5 10,7 9,4 9,9 10,7 11 6 29 16 S 1010,9 35 0 0,0
11.11.2018 20:00:00 11,2 8,3 10,6 9,0 10,0 10,7 14 8 27 14 SSE 1010,7 28 0 0,0
11.11.2018 19:00:00 10,9 8,4 9,8 8,9 10,2 10,7 15 8 23 13 SSE 1010,4 21 0 0,0
11.11.2018 18:00:00 11,4 8,7 10,2 9,2 10,3 10,7 13 7 22 12 SSE 1009,9 22 0 0,0
11.11.2018 17:00:00 12,1 8,9 10,6 9,7 10,4 10,7 10 5 22 12 SSE 1009,9 27 0 0,0
11.11.2018 16:00:00 12,8 9,0 11,5 11,0 10,4 10,7 11 6 26 14 SSE 1009,3 24 28 0,0
11.11.2018 15:00:00 13,1 9,1 12,6 11,6 10,3 10,7 11 6 35 19 SSE 1008,8 31 0 0,0
11.11.2018 14:00:00 13,3 9,1 13,0 12,1 10,2 10,7 13 7 28 15 S 1008,6 26 0 0,0
11.11.2018 13:00:00 13,7 8,6 13,5 12,4 9,9 10,7 14 8 38 20 S 1008,7 27 19 0,0
11.11.2018 12:00:00 13,9 8,4 15,2 12,0 9,7 10,7 14 7 29 16 S 1008,4 21 60 0,0
11.11.2018 11:00:00 12,0 8,2 11,6 10,4 9,6 10,7 14 8 32 18 SSE 1008,5 14 37 0,0
11.11.2018 10:00:00 11,2 8,2 11,9 9,9 9,5 10,7 16 9 30 16 SSE 1008,2 12 14 0,0
11.11.2018 09:00:00 10,8 8,4 10,4 9,3 9,5 10,7 15 8 28 15 SSE 1008,1 12 0 0,0
11.11.2018 08:00:00 10,7 8,0 10,1 9,2 9,5 10,7 14 7 31 17 SSE 1007,8 11 0 0,0
11.11.2018 07:00:00 10,8 7,7 10,1 9,2 9,6 10,7 15 8 29 16 SSE 1007,7 10 0 0,0
11.11.2018 06:00:00 11,0 7,7 10,3 9,3 9,6 10,7 13 7 30 16 SSE 1007,6 10 0 0,0
11.11.2018 05:00:00 10,9 7,8 10,4 9,3 9,6 10,7 13 7 29 16 SSE 1007,6 10 0 0,0
11.11.2018 04:00:00 11,1 7,9 10,5 9,5 9,6 10,7 10 6 30 16 SSE 1007,5 10 0 0,0
11.11.2018 03:00:00 11,1 8,0 10,7 9,6 9,6 10,7 14 8 31 17 SSE 1007,6 11 0 0,0
11.11.2018 02:00:00 11,2 8,1 10,8 9,5 9,5 10,7 18 10 30 16 SSE 1007,6 10 0 0,0
11.11.2018 01:00:00 11,3 8,3 10,7 9,4 9,5 10,7 13 7 30 16 SSE 1007,7 10 0 0,0
11.11.2018 00:00:00 11,4 8,2 10,9 9,4 9,5 10,7 15 8 24 13 SSE 1007,8 10 0 0,0
10.11.2018 23:00:00 11,1 8,0 10,5 9,2 9,5 10,7 13 7 24 13 SSE 1008,0 9 0 0,0
10.11.2018 22:00:00 10,9 7,9 10,3 9,1 9,6 10,7 15 8 26 14 SSE 1008,0 9 0 0,0
10.11.2018 21:00:00 10,7 7,8 10,1 9,2 9,6 10,7 14 7 24 13 SSE 1007,8 8 0 0,0
10.11.2018 20:00:00 10,7 7,7 10,2 9,3 9,7 10,7 13 7 31 17 SSE 1008,0 8 0 0,0
10.11.2018 19:00:00 10,9 7,6 10,4 9,4 9,7 10,7 16 9 31 17 SSE 1008,1 8 0 0,0
10.11.2018 18:00:00 11,1 7,6 10,6 9,6 9,7 10,7 17 9 33 18 SSE 1008,0 9 0 0,0
10.11.2018 17:00:00 11,2 7,5 10,7 9,9 9,7 10,7 16 8 32 17 SSE 1008,0 11 0 0,0
10.11.2018 16:00:00 11,6 7,5 11,3 10,4 9,7 10,7 14 8 31 17 SSE 1007,8 12 0 0,0
10.11.2018 15:00:00 11,9 7,6 11,7 10,8 9,5 10,7 17 9 32 17 SSE 1007,7 12 0 0,0
10.11.2018 14:00:00 11,8 7,5 11,8 10,9 9,4 10,7 12 7 33 18 SSE 1008,1 11 0 0,0
10.11.2018 13:00:00 11,4 7,5 11,4 10,7 9,3 10,7 15 8 36 19 SSE 1008,0 11 0 0,0
10.11.2018 12:00:00 10,8 7,5 10,9 10,4 9,1 10,7 22 12 36 19 SE 1008,1 9 2 0,0
10.11.2018 11:00:00 9,8 7,4 9,9 9,5 9,0 10,7 22 12 36 19 SSE 1008,8 6 0 0,0
10.11.2018 10:00:00 9,2 7,4 9,2 9,0 9,0 10,7 19 10 34 19 SSE 1009,4 5 0 0,0
10.11.2018 09:00:00 8,7 7,4 8,7 8,7 9,0 10,7 19 10 37 20 SSE 1009,3 4,2 0 0,0
10.11.2018 08:00:00 8,6 7,6 8,1 7,9 9,0 10,7 15 8 33 18 SSE 1009,4 3,8 0 0,0
10.11.2018 07:00:00 8,9 7,7 8,4 8,4 9,1 10,7 14 8 31 17 SSE 1009,4 4,0 0 0,0
10.11.2018 06:00:00 9,1 7,7 8,9 8,7 9,1 10,7 13 7 36 19 SSE 1009,8 3,9 0 0,0
10.11.2018 05:00:00 9,1 7,7 9,0 8,8 9,1 10,7 15 8 34 19 SSE 1010,0 4,0 0 0,0
10.11.2018 04:00:00 9,4 8,1 9,2 8,9 9,1 10,7 13 7 27 14 SSE 1010,9 3,7 0 0,0
10.11.2018 03:00:00 9,5 8,3 9,3 8,9 9,1 10,7 13 7 30 16 SSE 1011,4 3,8 0 0,0
10.11.2018 02:00:00 9,5 8,4 9,3 9,0 9,1 10,7 14 7 26 14 SSE 1011,7 3,4 0 0,0
10.11.2018 01:00:00 9,6 8,3 9,4 9,0 9,0 10,7 14 8 27 14 SSE 1012,2 3,8 0 0,0
10.11.2018 00:00:00 9,8 8,3 9,6 9,0 9,0 10,7 16 9 31 17 SSE 1012,4 4,4 0 0,0
09.11.2018 23:00:00 9,9 8,2 9,7 9,0 9,0 10,7 15 8 29 16 SSE 1013,1 4,8 0 0,0
09.11.2018 22:00:00 9,9 8,1 9,6 9,0 9,0 10,7 11 6 33 18 SSE 1013,8 6 0 0,0
09.11.2018 21:00:00 10,0 8,5 9,7 9,0 9,0 10,7 14 8 35 19 SSE 1014,1 6 0 0,0
09.11.2018 20:00:00 9,7 8,5 9,5 8,8 9,0 10,7 22 12 32 17 SE 1014,3 5 0 0,0
09.11.2018 19:00:00 9,7 8,5 9,4 9,0 9,0 10,7 20 11 29 16 SE 1014,8 6 0 0,0
09.11.2018 18:00:00 9,7 8,5 9,5 9,1 9,0 10,7 15 8 26 14 SE 1015,2 6 0 0,0
09.11.2018 17:00:00 9,6 8,4 9,5 9,2 8,9 10,7 18 10 30 16 SE 1015,4 8 0 0,0
09.11.2018 16:00:00 9,8 8,3 9,7 9,7 8,8 10,7 17 9 29 16 SE 1016,0 9 0 0,0
09.11.2018 15:00:00 10,1 8,3 10,2 10,2 8,6 10,7 12 7 20 11 ESE 1016,5 10 16 0,0
09.11.2018 14:00:00 9,7 8,0 10,2 10,6 8,4 10,7 10 6 22 12 ESE 1017,0 9 4 0,0
09.11.2018 13:00:00 9,4 8,6 9,8 9,9 8,2 10,7 12 7 21 11 SE 1017,4 7 0 0,0
09.11.2018 12:00:00 9,1 8,4 9,1 9,4 8,0 10,7 14 7 21 12 SE 1018,5 7 0 0,0
09.11.2018 11:00:00 8,6 8,0 8,6 8,7 7,8 10,8 9 5 15 8 SE 1018,9 4,6 0 0,0
09.11.2018 10:00:00 7,9 7,1 7,5 7,3 7,7 10,8 6 4 10 5 ESE 1019,1 6 0 0,0
09.11.2018 09:00:00 7,5 7,0 6,7 6,5 7,7 10,8 5 3 9 5 SE 1019,6 6 0 0,0
09.11.2018 08:00:00 7,0 6,5 6,2 6,1 7,7 10,8 6 3 9 5 SE 1019,9 6 0 0,0
09.11.2018 07:00:00 6,7 6,2 6,0 6,1 7,7 10,8 6 3 9 5 SE 1020,0 5 0 0,0
09.11.2018 06:00:00 6,9 6,3 6,2 6,0 7,8 10,8 8 4 10 5 SE 1020,1 6 0 0,0
09.11.2018 05:00:00 6,6 5,7 5,9 5,8 7,8 10,8 6 4 9 5 SSE 1020,7 8 0 0,0
09.11.2018 04:00:00 6,6 5,9 5,8 5,8 7,9 10,8 9 5 9 5 SSW 1020,9 6 0 0,0
09.11.2018 03:00:00 6,7 6,1 6,0 5,8 8,0 10,8 6 4 9 5 S 1021,1 7 0 0,0
09.11.2018 02:00:00 6,8 6,2 5,7 5,4 8,1 10,8 7 4 9 5 SSE 1021,4 6 0 0,0
09.11.2018 01:00:00 7,7 7,5 5,7 5,5 8,3 10,8 5 3 8 5 SSW 1021,8 6 0 0,0
09.11.2018 00:00:00 7,7 7,1 4,7 5,3 8,4 10,8 4 2 8 4 WSW 1022,0 4,6 0 0,0
08.11.2018 23:00:00 8,2 7,7 4,4 6,1 8,6 10,8 6 3 10 6 W 1022,1 8 0 0,0
08.11.2018 22:00:00 8,6 7,8 6,3 6,1 8,8 10,8 9 5 11 6 W 1022,3 9 0 0,0
08.11.2018 21:00:00 9,5 8,5 5,7 6,2 9,0 10,8 7 4 10 6 WNW 1022,2 7 0 0,0
08.11.2018 20:00:00 9,9 8,3 7,1 7,1 9,2 10,8 8 4 16 9 W 1022,1 12 0 0,0
08.11.2018 19:00:00 10,6 8,6 8,4 7,7 9,3 10,8 10 5 17 9 W 1021,8 17 0 0,0
08.11.2018 18:00:00 11,1 8,1 9,5 8,6 9,4 10,8 14 8 24 13 W 1021,6 23 0 0,0
08.11.2018 17:00:00 11,4 8,3 9,6 9,5 9,4 10,8 9 5 16 9 W 1021,5 26 0 0,0
08.11.2018 16:00:00 11,8 8,7 10,7 10,4 9,4 10,8 7 4 16 8 W 1021,3 26 0 0,0
08.11.2018 15:00:00 12,2 8,5 12,1 11,2 9,2 10,8 11 6 22 12 W 1021,1 27 0 0,0
08.11.2018 14:00:00 12,5 8,7 12,6 11,6 8,9 10,8 7 4 22 12 W 1020,7 24 0 0,0
08.11.2018 13:00:00 12,4 8,8 12,6 11,6 8,6 10,8 16 9 29 16 W 1020,6 20 11 0,0

tt = temperature
td = dewpoint
tt 5cm = temperature 5cm
tt -5cm = temperature -5cm
tt -20cm = temperature -20cm
tt -100cm = temperature -100cm
ff = wind speed
fx = gusts
dd = wind direction
ppp = reduced air pressure
vv = visibility
sd = sunshine duration
rr = precipitation

Next stations